This is the latest recevied weather packets stored in our database for station/object OE-11213. If no packets are shown the sender has not sent any weather packets the latest 10 day(s).
| Time | Temp. | Humidity | Pressure | Rain* | Wind** | Luminosity | Snow |
|---|---|---|---|---|---|---|---|
| 1788279931 | 25.56° C | 44% | 1016.9 hPa | 0 mm | - | 189 W/m² | - |
| 1788278731 | 25.56° C | 44% | 1016.8 hPa | 0 mm | - | 218 W/m² | - |
| 1788278131 | 25.56° C | 44% | 1016.9 hPa | 0 mm | - | 276 W/m² | - |
| 1788276931 | 26.11° C | 45% | 1017.1 hPa | 0 mm | - | 334 W/m² | - |
| 1788276331 | 26.11° C | 44% | 1017.2 hPa | 0 mm | - | 363 W/m² | - |
| 1788275504 | 25.56° C | 46% | 1017.4 hPa | 0 mm | - | 392 W/m² | - |
| 1788274531 | 26.11° C | 44% | 1017.4 hPa | 0 mm | - | 450 W/m² | - |
| 1788273331 | 25.56° C | 47% | 1017.6 hPa | 0 mm | - | 500 W/m² | - |
| 1788272731 | 25° C | 47% | 1017.7 hPa | 0 mm | - | 529 W/m² | - |
| 1788271531 | 25.56° C | 47% | 1017.8 hPa | 0 mm | - | 573 W/m² | - |
| 1788270931 | 25° C | 46% | 1017.9 hPa | 0 mm | - | 602 W/m² | - |
| 1788270104 | 25.56° C | 46% | 1017.8 hPa | 0 mm | - | 660 W/m² | - |
| 1788269731 | 25° C | 47% | 1018.1 hPa | 0 mm | - | 399 W/m² | - |
| 1788269131 | 25° C | 45% | 1018.2 hPa | 0 mm | - | 631 W/m² | - |
| 1788268305 | 24.44° C | 45% | 1018.5 hPa | 0 mm | - | 725 W/m² | - |
| 1788267331 | 24.44° C | 47% | 1019 hPa | 0 mm | - | 732 W/m² | - |
| 1788266503 | 24.44° C | 46% | 1019 hPa | 0 mm | - | 761 W/m² | - |
| 1788266130 | 24.44° C | 48% | 1019.2 hPa | 0 mm | - | 566 W/m² | - |
| 1788265531 | 24.44° C | 51% | 1019.1 hPa | 0 mm | - | 660 W/m² | - |
| 1788264702 | 23.89° C | 50% | 1019.2 hPa | 0 mm | - | 798 W/m² | - |
| 1788264331 | 23.89° C | 57% | 1019.4 hPa | 0 mm | - | 805 W/m² | - |
| 1788263731 | 23.33° C | 60% | 1019.6 hPa | 0 mm | - | 776 W/m² | - |
| 1788262904 | 22.78° C | 63% | 1019.8 hPa | 0 mm | - | 718 W/m² | - |
| 1788262531 | 22.78° C | 65% | 1020.2 hPa | 0 mm | - | 660 W/m² | - |
| 1788261931 | 21.67° C | 68% | 1020.3 hPa | 0 mm | - | 783 W/m² | - |
* Rain latest hour (hover to see other rain measurements)
** Current wind speed in m/s (hover to see current wind gust speed)